TimeMST,TemperatureF,Dew PointF,Humidity,Sea Level PressureIn,VisibilityMPH,Wind Direction,Wind SpeedMPH,Gust SpeedMPH,PrecipitationIn,Events,Conditions,WindDirDegrees,DateUTC
12:53 AM,-9.0,-16.1,71,30.23,10.0,NNW,6.9,-,N/A,,Scattered Clouds,340,2012-12-09 07:53:00
1:53 AM,-9.0,-15.0,75,30.24,10.0,Calm,Calm,-,N/A,,Clear,0,2012-12-09 08:53:00
2:53 AM,-9.9,-16.1,74,30.27,10.0,NE,3.5,-,N/A,,Clear,50,2012-12-09 09:53:00
3:53 AM,-9.0,-14.1,79,30.27,10.0,East,3.5,-,N/A,,Clear,100,2012-12-09 10:53:00
4:53 AM,-11.9,-18.0,74,30.38,10.0,NE,3.5,-,N/A,,Clear,50,2012-12-09 11:53:00
5:53 AM,-9.9,-16.1,74,30.38,10.0,Calm,Calm,-,N/A,,Overcast,0,2012-12-09 12:53:00
6:53 AM,-11.9,-16.1,82,30.42,10.0,Calm,Calm,-,N/A,,Partly Cloudy,0,2012-12-09 13:53:00
7:53 AM,-9.9,-16.1,74,30.46,10.0,Calm,Calm,-,N/A,,Scattered Clouds,0,2012-12-09 14:53:00
8:53 AM,-2.9,-9.0,75,30.48,10.0,Calm,Calm,-,N/A,,Clear,0,2012-12-09 15:53:00
9:53 AM,1.0,-6.0,72,30.48,10.0,ESE,3.5,-,N/A,,Partly Cloudy,120,2012-12-09 16:53:00
10:53 AM,7.0,-2.0,67,30.44,10.0,East,3.5,-,N/A,,Clear,80,2012-12-09 17:53:00
11:53 AM,10.9,-0.0,61,30.43,10.0,East,5.8,-,N/A,,Clear,80,2012-12-09 18:53:00
12:53 PM,14.0,1.9,59,30.40,10.0,NNE,3.5,-,N/A,,Clear,30,2012-12-09 19:53:00
1:53 PM,15.1,1.9,56,30.40,10.0,NE,4.6,-,N/A,,Clear,40,2012-12-09 20:53:00
2:53 PM,15.1,1.9,56,30.40,10.0,Calm,Calm,-,N/A,,Clear,0,2012-12-09 21:53:00
3:53 PM,14.0,1.0,56,30.41,10.0,NW,3.5,-,N/A,,Scattered Clouds,310,2012-12-09 22:53:00
4:53 PM,10.9,-0.0,61,30.44,10.0,NW,3.5,-,N/A,,Clear,320,2012-12-09 23:53:00
5:53 PM,-0.9,-6.0,79,30.50,10.0,North,5.8,-,N/A,,Clear,360,2012-12-10 00:53:00
6:53 PM,3.9,-2.9,73,30.46,10.0,Calm,Calm,-,N/A,,Overcast,0,2012-12-10 01:53:00
7:53 PM,1.9,-4.0,76,30.45,10.0,Calm,Calm,-,N/A,,Mostly Cloudy,0,2012-12-10 02:53:00
8:53 PM,3.9,-4.0,70,30.37,10.0,WSW,5.8,-,N/A,,Scattered Clouds,250,2012-12-10 03:53:00
9:53 PM,5.0,-4.0,66,30.34,10.0,North,11.5,-,N/A,,Clear,360,2012-12-10 04:53:00
10:53 PM,6.1,-2.0,69,30.30,10.0,West,4.6,-,N/A,,Overcast,260,2012-12-10 05:53:00
11:53 PM,12.9,1.0,59,30.24,10.0,NW,11.5,-,N/A,,Overcast,320,2012-12-10 06:53:00